[[{"header":{"parameterUnit":"m.s-1","parameterCategory":1,"la1":30.2991,"la2":30.254,"lo1":-89.0895,"lo2":-89.0444,"dy":0.0017,"dx":0.0017,"nx":28,"ny":28,"refTime":"2024-04-06T09:00:00:Z","depth":0,"parameterNumber":2,"parameterNumberName":"U-component_of_WINDS"},"data":[0,0,0,0,0,0,0,0,0,0,0,0,0,0,0,0,0,0,0,0,0,0,0,0,0,0,0,0,0,0,0,0,0,0,0,0,0,0,0,0,0,0,0,0,0,0,0,0,0,0,0,0,0,0,0,0,0,0,-2.2223,-2.2225,0,-2.2425,-2.2428,-2.243,-2.2514,-2.2513,-2.2513,-2.2512,-2.272,-2.2726,-2.2732,0,0,0,0,0,0,0,0,0,0,0,0,0,-2.191,-2.1915,-2.2223,-2.2225,-2.2228,-2.2425,-2.2428,-2.2431,-2.2514,-2.2513,-2.2513,-2.2512,-2.2719,-2.2726,-2.2733,0,0,0,0,0,0,0,0,0,0,0,0,0,-2.2072,-2.1917,-2.2222,-2.2293,-2.2301,-2.2424,-2.2428,-2.2431,-2.2514,-2.2513,-2.2512,-2.2512,-2.2716,-2.2725,-2.2734,-2.2802,0,0,-2.2761,-2.2765,0,0,0,0,0,0,0,0,-2.2063,-2.2084,-2.228,-2.2288,-2.2298,-2.2444,-2.2394,-2.2556,-2.2514,-2.2433,-2.2512,-2.2512,-2.2629,-2.2645,-2.2684,-2.2811,-2.282,-2.2762,-2.2767,-2.2771,-2.2773,0,0,0,0,0,0,0,-2.2052,-2.2075,-2.2303,-2.2283,-2.2294,-2.2315,-2.2338,-2.2425,-2.2532,-2.244,-2.2447,-2.2469,-2.2634,-2.2676,-2.269,-2.2823,-2.2761,-2.2769,-2.2775,-2.2778,-2.3018,-2.3019,0,0,0,0,0,0,-2.2028,-2.2065,-2.2297,-2.2309,-2.2176,-2.2321,-2.2346,-2.2397,-2.2531,-2.2551,-2.247,-2.2473,-2.2661,-2.2679,-2.2698,-2.2787,-2.2771,-2.2779,-2.2784,-2.3017,-2.3019,-2.302,0,0,0,0,0,0,-2.2021,-2.2048,-2.2288,-2.2189,-2.2221,-2.2327,-2.2384,-2.2402,-2.2444,-2.2554,-2.2574,-2.2493,-2.2661,-2.2685,-2.2776,-2.2795,-2.2783,-2.2791,-2.3016,-2.3018,-2.3019,-2.2965,0,0,0,0,0,0,-2.2012,-2.2045,-2.2072,-2.2189,-2.2226,-2.2362,-2.2385,-2.2406,-2.2459,-2.2464,-2.2581,-2.2599,-2.2662,-2.2762,-2.2784,-2.2807,-2.2798,-2.3015,-2.3017,-2.3019,-2.2965,-2.2964,-2.2964,0,0,0,0,0,-2.2001,-2.2048,-2.2072,-2.21,-2.2261,-2.2363,-2.2384,-2.2455,-2.246,-2.2488,-2.2559,-2.2596,-2.2789,-2.277,-2.2796,-2.2822,-2.3014,-2.3016,-2.3018,-2.2966,-2.2965,-2.2964,0,0,0,0,0,0,-2.193,-2.2065,-2.2093,-2.218,-2.2259,-2.2377,-2.2414,-2.2452,-2.2532,-2.2533,-2.2619,-2.2645,-2.2728,-2.2785,-2.2761,-2.2896,-2.2905,-2.2912,-2.2856,-2.2856,-2.2855,-2.2839,-2.2806,0,0,0,0,0,-2.1925,-2.1995,-2.211,-2.2175,-2.2214,-2.2307,-2.2354,-2.2402,-2.2488,-2.2522,-2.2599,-2.2681,-2.2761,-2.2812,-2.2891,-2.2975,-2.3001,-2.3005,-2.3004,-2.3003,-2.3008,-2.3058,-2.3061,-2.3027,-2.3027,-2.3027,0,0,-2.1914,-2.1996,-2.2036,-2.2163,-2.223,-2.2302,-2.2334,-2.2409,-2.2463,-2.2533,-2.2623,-2.2683,-2.2781,-2.2868,-2.2911,-2.2918,-2.3024,-2.3006,-2.3004,-2.3011,-2.3061,-2.3064,-2.3066,-2.3029,-2.3028,-2.3028,0,0,-2.1932,-2.2001,-2.2063,-2.213,-2.2232,-2.2294,-2.2308,-2.2421,-2.2463,-2.2555,-2.2609,-2.2676,-2.2811,-2.2878,-2.293,-2.2975,-2.3012,-2.2999,-2.2993,-2.3041,-2.3043,-2.3046,-2.3062,-2.3067,-2.3004,-2.3004,-2.3004,0,-2.1906,-2.2016,-2.2091,-2.2163,-2.2218,-2.2284,-2.2349,-2.241,-2.2532,-2.2569,-2.2576,-2.2747,-2.2818,-2.2922,-2.2933,-2.2973,-2.2994,-2.2985,-2.3037,-2.304,-2.3044,-2.3061,-2.3066,-2.3001,-2.3002,-2.3002,-2.3002,0,-2.1979,-2.2055,-2.2093,-2.2209,-2.2269,-2.2336,-2.2423,-2.2474,-2.2517,-2.2579,-2.2672,-2.2759,-2.2858,-2.2887,-2.2929,-2.2998,-2.2999,-2.302,-2.303,-2.3044,-2.3061,-2.3068,-2.2998,-2.2999,-2.3,-2.3,0,0,-2.1957,-2.2114,-2.2127,-2.2181,-2.2298,-2.2359,-2.243,-2.2527,-2.2569,-2.2651,-2.2714,-2.2828,-2.2848,-2.2907,-2.2959,-2.3,-2.3031,-2.3017,-2.302,-2.3016,-2.3112,-2.3095,-2.3101,-2.3056,-2.3058,-2.3059,-2.3104,0,-2.199,-2.212,-2.219,-2.2291,-2.2362,-2.2427,-2.249,-2.2569,-2.2629,-2.2699,-2.2765,-2.2844,-2.2865,-2.2902,-2.2946,-2.3017,-2.3051,-2.3015,-2.3116,-2.3118,-2.3088,-2.311,-2.3092,-2.313,-2.3111,-2.3112,-2.3113,0,-2.2046,-2.2127,-2.2234,-2.2344,-2.2377,-2.2432,-2.2526,-2.2592,-2.2684,-2.2725,-2.2791,-2.2842,-2.2921,-2.2926,-2.3036,-2.301,-2.3056,-2.3098,-2.3101,-2.3113,-2.3116,-2.3122,-2.3144,-2.3149,-2.3124,-2.3123,-2.3122,0,-2.2018,-2.2155,-2.2237,-2.2281,-2.2412,-2.2449,-2.2505,-2.2596,-2.265,-2.2733,-2.2769,-2.286,-2.291,-2.298,-2.3055,-2.3051,-2.3158,-2.3169,-2.3194,-2.3192,-2.3213,-2.3211,-2.3242,-2.3243,-2.3243,-2.3243,-2.3243,0,-2.2048,-2.2111,-2.2227,-2.2277,-2.235,-2.2431,-2.2502,-2.2564,-2.2644,-2.2709,-2.2771,-2.283,-2.2926,-2.2997,-2.3057,-2.3139,-2.3162,-2.3197,-2.3212,-2.3191,-2.3187,-2.3222,-2.3221,-2.3244,-2.3244,-2.3244,-2.3243,0,-2.2029,-2.2109,-2.2203,-2.2319,-2.235,-2.2399,-2.2499,-2.2551,-2.2614,-2.2695,-2.2719,-2.2818,-2.2906,-2.2988,-2.3105,-2.3145,-2.3228,-2.3247,-2.3196,-2.3205,-2.3225,-2.3222,-2.328,-2.3292,-2.3284,-2.3284,-2.3284,0,-2.2042,-2.2093,-2.2214,-2.2261,-2.2316,-2.2392,-2.2447,-2.2529,-2.2585,-2.2694,-2.2733,-2.2825,-2.2903,-2.304,-2.3123,-2.3213,-2.3235,-2.3249,-2.3249,-2.3227,-2.3235,-2.3231,-2.3237,-2.3247,-2.3247,-2.3247,-2.3247,0,-2.2058,-2.2095,-2.2172,-2.2263,-2.2327,-2.2403,-2.2481,-2.2516,-2.2614,-2.2673,-2.2763,-2.2823,-2.2943,-2.3033,-2.3133,-2.3192,-2.3236,-2.3246,-2.3257,-2.3236,-2.3204,-2.3222,-2.3192,-2.3244,-2.3244,-2.3245,-2.3245,-2.3245,-2.2056,-2.2104,-2.2197,-2.2281,-2.2348,-2.2419,-2.2474,-2.2545,-2.2621,-2.2724,-2.2769,-2.286,-2.2952,-2.309,-2.3149,-2.3223,-2.3232,-2.3248,-2.3252,-2.3254,-2.325,-2.3193,-2.3241,-2.3241,-2.3242,-2.3242,-2.3242,0,-2.2074,-2.2137,-2.2214,-2.2321,-2.2387,-2.2422,-2.2511,-2.2564,-2.2643,-2.2725,-2.2801,-2.2904,-2.2993,-2.3084,-2.3178,-2.3219,-2.3242,-2.3241,-2.3239,-2.3252,-2.3236,-2.3217,-2.3222,-2.3222,-2.3222,-2.3222,-2.3222,-2.3222,-2.2092,-2.2174,-2.2223,-2.234,-2.2404,-2.2493,-2.2541,-2.2607,-2.2673,-2.2786,-2.286,-2.2919,-2.3005,-2.3106,-2.3189,-2.3214,-2.3246,-2.3239,-2.3269,-2.3252,-2.3253,-2.3254,-2.3237,-2.3246,-2.3246,-2.328,-2.328,-2.328]},{"header":{"parameterUnit":"m.s-1","parameterCategory":1,"la1":30.2991,"la2":30.254,"lo1":-89.0895,"lo2":-89.0444,"dy":0.0017,"dx":0.0017,"nx":28,"ny":28,"refTime":"2024-04-06T09:00:00:Z","depth":0,"parameterNumber":3,"parameterNumberName":"V-component_of_WINDS"},"data":[0,0,0,0,0,0,0,0,0,0,0,0,0,0,0,0,0,0,0,0,0,0,0,0,0,0,0,0,0,0,0,0,0,0,0,0,0,0,0,0,0,0,0,0,0,0,0,0,0,0,0,0,0,0,0,0,0,0,3.0361,3.0361,0,3.0369,3.0369,3.0369,3.0313,3.0311,3.031,3.0308,3.0315,3.0317,3.0318,0,0,0,0,0,0,0,0,0,0,0,0,0,3.0296,3.0298,3.0361,3.0361,3.0361,3.0369,3.0369,3.0369,3.0313,3.0311,3.0309,3.0307,3.0315,3.0317,3.0318,0,0,0,0,0,0,0,0,0,0,0,0,0,3.0316,3.0298,3.0361,3.0334,3.0332,3.0369,3.0369,3.0369,3.0313,3.0311,3.0309,3.0307,3.0314,3.0316,3.0319,3.0381,0,0,3.0326,3.0327,0,0,0,0,0,0,0,0,3.0315,3.0319,3.0338,3.0336,3.0334,3.0337,3.0348,3.0373,3.0314,3.032,3.0308,3.0305,3.0324,3.0326,3.0332,3.0381,3.0382,3.0327,3.0328,3.0329,3.033,0,0,0,0,0,0,0,3.0314,3.0318,3.0364,3.0338,3.0336,3.0321,3.0322,3.0353,3.0335,3.032,3.0316,3.0317,3.0323,3.033,3.0332,3.0382,3.0326,3.0329,3.033,3.0331,3.048,3.0483,0,0,0,0,0,0,3.0316,3.0317,3.0364,3.0364,3.0318,3.0324,3.0325,3.0338,3.0335,3.0332,3.0319,3.0315,3.0327,3.0329,3.0332,3.0403,3.0329,3.0331,3.0333,3.0478,3.0481,3.0484,0,0,0,0,0,0,3.0315,3.0321,3.0363,3.034,3.0344,3.0328,3.0344,3.034,3.0347,3.0335,3.0331,3.033,3.0325,3.0329,3.0369,3.0403,3.0332,3.0335,3.0475,3.0479,3.0482,3.0547,0,0,0,0,0,0,3.0314,3.0321,3.0345,3.0341,3.0345,3.0401,3.0346,3.0342,3.0352,3.0346,3.0344,3.0341,3.0324,3.0366,3.0371,3.0405,3.0337,3.0472,3.0477,3.0481,3.0541,3.0552,3.0561,0,0,0,0,0,3.0311,3.0363,3.0346,3.0352,3.0375,3.0403,3.0405,3.0384,3.0355,3.0378,3.037,3.0341,3.0399,3.037,3.0376,3.0411,3.047,3.0475,3.0481,3.0537,3.055,3.0561,0,0,0,0,0,0,3.0371,3.0362,3.0343,3.0395,3.04,3.0393,3.0422,3.0399,3.0412,3.0406,3.0379,3.0379,3.0423,3.0421,3.039,3.047,3.0429,3.0436,3.0469,3.0482,3.0491,3.049,3.0339,0,0,0,0,0,3.039,3.0414,3.0404,3.0451,3.0454,3.0438,3.0449,3.0433,3.0437,3.0438,3.0433,3.0438,3.0456,3.0469,3.0486,3.0542,3.0539,3.0568,3.0578,3.0587,3.0592,3.062,3.0632,3.0502,3.0502,3.0502,0,0,3.043,3.0428,3.0444,3.0463,3.0465,3.0489,3.044,3.0468,3.0485,3.0442,3.0479,3.0476,3.048,3.0527,3.0548,3.0527,3.0628,3.0594,3.06,3.0601,3.0627,3.0639,3.065,3.0506,3.0505,3.0505,0,0,3.0514,3.0516,3.0553,3.0556,3.056,3.0549,3.0558,3.0555,3.0551,3.0588,3.0556,3.0576,3.061,3.0613,3.0619,3.0704,3.0678,3.0711,3.0762,3.0789,3.0799,3.0808,3.0836,3.0847,3.0717,3.0717,3.0717,0,3.0562,3.0598,3.0576,3.0606,3.0614,3.0577,3.0614,3.0618,3.0627,3.0633,3.061,3.065,3.065,3.0697,3.0718,3.0725,3.0734,3.071,3.0799,3.0808,3.0816,3.0843,3.0854,3.0721,3.0721,3.072,3.072,0,3.0656,3.0682,3.0712,3.0721,3.0733,3.0767,3.0749,3.0764,3.0747,3.0738,3.0775,3.0774,3.0789,3.08,3.0783,3.0844,3.0831,3.0804,3.0762,3.0833,3.0857,3.0867,3.0726,3.0725,3.0724,3.0723,0,0,3.0777,3.0774,3.0785,3.0788,3.0789,3.0808,3.084,3.0855,3.0867,3.0875,3.09,3.0929,3.0904,3.0911,3.0895,3.0919,3.0984,3.0889,3.0888,3.0905,3.1049,3.1067,3.108,3.0968,3.097,3.0971,3.1048,0,3.0857,3.0911,3.0892,3.0946,3.0968,3.0933,3.0961,3.0964,3.0957,3.0974,3.0966,3.0987,3.0953,3.0957,3.098,3.0971,3.1012,3.0966,3.0989,3.099,3.0987,3.1093,3.1113,3.1185,3.1058,3.106,3.1061,0,3.0958,3.0969,3.1026,3.1022,3.1031,3.1056,3.1067,3.1085,3.1088,3.1081,3.1089,3.1067,3.1097,3.1057,3.1097,3.1066,3.1074,3.1072,3.1074,3.1073,3.1028,3.1093,3.1208,3.1218,3.1076,3.1075,3.1074,0,3.1037,3.1067,3.1104,3.1108,3.1106,3.1124,3.1123,3.1124,3.1134,3.1144,3.115,3.1164,3.1171,3.1182,3.1165,3.1137,3.1207,3.1165,3.1201,3.1201,3.1215,3.1214,3.1331,3.1225,3.1224,3.1224,3.1224,0,3.1127,3.1163,3.1139,3.1162,3.12,3.1178,3.1217,3.1213,3.1214,3.1234,3.1206,3.1226,3.1203,3.122,3.1207,3.1241,3.1246,3.124,3.1235,3.1241,3.1241,3.1244,3.1238,3.1227,3.1227,3.1226,3.1225,0,3.1221,3.1207,3.1245,3.124,3.1239,3.1268,3.1262,3.1283,3.1274,3.1301,3.1306,3.1291,3.1311,3.1295,3.1314,3.1305,3.135,3.1339,3.1348,3.1345,3.138,3.1376,3.1501,3.1515,3.1402,3.1403,3.1404,0,3.1279,3.1305,3.1302,3.1314,3.1315,3.1335,3.1345,3.1324,3.1336,3.1341,3.136,3.1377,3.1389,3.1422,3.1413,3.1427,3.1415,3.1458,3.1417,3.1422,3.1413,3.1411,3.1413,3.1466,3.1467,3.1468,3.1469,0,3.1381,3.1373,3.1388,3.1401,3.1413,3.1422,3.1429,3.144,3.1419,3.1433,3.1453,3.1462,3.1481,3.1498,3.1509,3.1508,3.1485,3.1483,3.1491,3.1496,3.1499,3.1496,3.1368,3.1479,3.1478,3.1477,3.1477,3.1477,3.1457,3.1478,3.1479,3.1497,3.15,3.1507,3.1525,3.1518,3.1534,3.1548,3.1535,3.1558,3.156,3.1572,3.1574,3.1592,3.1574,3.1587,3.1589,3.1592,3.1596,3.1498,3.1594,3.1594,3.1593,3.1593,3.1593,0,3.1556,3.1555,3.1572,3.1582,3.1595,3.1573,3.1579,3.1592,3.1612,3.1616,3.1629,3.165,3.1666,3.1659,3.1673,3.1688,3.1678,3.1692,3.169,3.1689,3.1613,3.1603,3.17,3.17,3.17,3.17,3.17,3.17,3.1609,3.1643,3.1635,3.167,3.1668,3.169,3.1696,3.1702,3.1704,3.173,3.1743,3.1738,3.1737,3.175,3.1764,3.1761,3.1767,3.1785,3.1778,3.1706,3.1695,3.1685,3.1675,3.1787,3.1787,3.1853,3.1854,3.1854]}]]